HG8GL-6 Weather Reports


time (UTC)temp
C
wind
direction
speed
KPH
gust
KPH
rain 1hr
cm
rain 24hr
cm
rain mn
cm
humidity
%
barometer
mb
20260507210552 16 225 0.0 0.0 0.05 0.89 0.89 95 1015.0
20260507205552 16 202 0.0 0.0 0.08 0.89 0.89 95 1015.1
20260507204522 16 202 0.0 0.0 0.10 0.89 0.89 95 1016.0
20260507203452 16 202 0.0 0.0 0.13 0.89 0.89 95 1015.0
20260507202452 16 202 0.0 0.0 0.13 0.89 0.89 95 1016.0
20260507201422 16 202 0.0 0.0 0.15 0.86 0.86 95 1016.0
20260507200352 16 202 0.0 0.0 0.15 0.84 0.84 94 1016.0
20260507195322 16 202 0.0 0.0 0.15 0.81 0.81 94 1016.0
20260507194252 16 202 0.0 0.0 0.13 0.79 0.79 94 1016.0
20260507193222 16 202 0.0 0.0 0.10 0.76 0.76 94 1016.0
20260507192152 16 202 0.0 0.0 0.05 0.74 0.74 94 1015.0
20260507191122 16 225 0.0 0.0 0.05 0.71 0.71 94 1015.0
20260507190052 16 202 0.0 0.0 0.00 0.66 0.66 94 1015.0
20260507185021 16 180 0.0 0.0 0.00 0.66 0.66 93 1015.0
20260507183951 16 158 0.0 0.0 0.00 0.66 0.66 93 1014.0
20260507182921 16 158 0.0 0.0 0.00 0.66 0.66 93 1014.0
20260507181851 16 158 0.0 0.0 0.00 0.66 0.66 93 1014.0
20260507180851 16 158 0.0 0.0 0.00 0.66 0.66 93 1015.0
20260507175651 16 158 0.0 0.0 0.00 0.66 0.66 93 1015.0
20260507174651 16 143 0.0 0.0 0.00 0.66 0.66 93 1014.0
20260507173651 16 158 0.0 0.0 0.00 0.66 0.66 93 1014.0
20260507172651 16 158 0.0 0.0 0.00 0.66 0.66 93 1014.0
20260507171651 17 158 0.0 0.0 0.00 0.66 0.66 92 1014.0
20260507170552 17 158 0.0 0.0 0.00 0.66 0.66 92 1015.0
20260507165552 17 158 0.0 0.0 0.00 0.66 0.66 92 1014.9
20260507164551 17 158 0.0 0.0 0.00 0.66 0.66 92 1014.0
20260507163521 17 158 0.0 0.0 0.00 0.66 0.66 92 1013.0
20260507162521 17 248 0.0 0.0 0.00 0.66 0.66 92 1013.1
20260507161521 17 248 0.0 0.0 0.00 0.66 0.66 92 1014.0
20260507160521 17 248 0.0 0.0 0.00 0.66 0.66 92 1014.0
20260507155521 17 248 0.0 0.0 0.00 0.66 0.66 92 1014.0
20260507154521 17 247 0.0 0.0 0.00 0.66 0.66 93 1014.0
20260507153451 17 186 0.0 0.0 0.00 0.66 0.66 93 1014.0
20260507152451 17 180 0.0 0.0 0.00 0.66 0.66 93 1014.0
20260507151451 17 158 0.0 0.0 0.00 0.66 0.66 93 1014.0
20260507150451 17 171 0.0 0.0 0.00 0.66 0.66 93 1015.0
20260507145421 17 158 0.0 0.0 0.00 0.66 0.66 93 1014.0
20260507144351 17 158 0.0 0.0 0.00 0.66 0.66 93 1014.0
20260507143321 17 158 0.0 0.0 0.00 0.66 0.66 93 1015.0
20260507142321 17 158 0.0 0.0 0.03 0.66 0.66 93 1015.0
20260507141251 17 158 0.0 0.0 0.08 0.66 0.66 92 1015.0
20260507140251 17 161 0.0 0.0 0.08 0.66 0.66 92 1015.0
20260507135221 17 153 0.0 0.0 0.08 0.66 0.66 91 1014.0
20260507134151 17 195 0.0 0.0 0.08 0.66 0.66 91 1014.0
20260507133151 17 143 0.0 0.0 0.08 0.66 0.66 90 1014.0
20260507132121 18 121 0.0 0.0 0.03 0.61 0.61 88 1014.0
20260507131121 18 158 0.0 0.0 0.00 0.58 0.58 88 1014.0
20260507130121 17 158 0.0 0.0 0.00 0.58 0.58 88 1015.0
20260507125051 17 202 0.0 0.0 0.00 0.58 0.58 88 1014.0
20260507124051 17 163 0.0 0.0 0.05 0.58 0.58 88 1014.0
20260507123051 17 147 0.0 0.0 0.08 0.58 0.58 87 1014.0
20260507122051 17 158 0.0 0.0 0.13 0.58 0.58 86 1014.0
20260507121051 17 158 0.0 0.0 0.20 0.58 0.58 86 1014.1
20260507120021 17 188 0.0 0.0 0.20 0.58 0.58 86 1015.0
20260507115021 17 183 0.0 0.0 0.20 0.56 0.56 86 1014.0
20260507113951 17 231 0.0 0.0 0.15 0.51 0.51 83 1014.0
20260507112921 17 158 0.0 0.0 0.38 0.48 0.48 83 1014.0
20260507111921 17 212 0.0 0.0 0.33 0.43 0.43 83 1014.0
20260507110920 17 158 0.0 0.0 0.30 0.36 0.36 82 1014.0
20260507105850 17 248 0.0 0.0 0.36 0.36 0.36 80 1014.0
20260507104820 18 255 0.0 0.0 0.36 0.36 0.36 77 1013.0
20260507103820 18 292 0.0 0.0 0.36 0.36 0.36 77 1014.0
20260507102820 20 253 0.0 0.0 0.10 0.10 0.10 74 1014.0
20260507101750 20 334 0.0 0.0 0.08 0.08 0.08 69 1015.0
20260507100720 22 277 0.0 0.0 0.03 0.03 0.03 59 1015.0
20260507095720 23 170 0.0 0.0 0.00 0.00 0.00 57 1015.0
20260507094720 22 172 0.0 0.0 0.00 0.00 0.00 60 1014.0
20260507093620 22 168 0.0 0.0 0.00 0.00 0.00 60 1014.0
20260507092550 22 178 0.0 0.0 0.00 0.00 0.00 63 1014.0
20260507091550 21 158 0.0 0.0 0.00 0.00 0.00 65 1014.0
20260507090520 21 158 0.0 0.0 0.00 0.00 0.00 66 1014.0
20260507085520 20 206 0.0 0.0 0.00 0.00 0.00 67 1014.1
20260507084520 20 192 0.0 0.0 0.00 0.00 0.00 72 1015.0
20260507083520 19 204 0.0 0.0 0.00 0.00 0.00 73 1014.0
20260507082450 18 157 0.0 0.0 0.00 0.00 0.00 73 1015.0
20260507081420 18 180 0.0 0.0 0.00 0.00 0.00 73 1015.0
20260507080420 18 192 0.0 0.0 0.00 0.00 0.00 73 1014.0
20260507075350 19 228 0.0 0.0 0.00 0.00 0.00 72 1014.0
20260507074350 19 195 0.0 0.0 0.00 0.00 0.00 74 1014.0
20260507073320 18 182 0.0 0.0 0.00 0.00 0.00 76 1014.0
20260507072320 18 168 0.0 0.0 0.00 0.00 0.00 79 1014.0
20260507071320 18 165 0.0 0.0 0.00 0.00 0.00 83 1014.0
20260507070320 18 204 0.0 0.0 0.00 0.00 0.00 85 1014.0
20260507065250 17 186 0.0 0.0 0.00 0.00 0.00 88 1014.0
20260507064220 17 191 0.0 0.0 0.00 0.00 0.00 88 1014.0
20260507063220 16 181 0.0 0.0 0.00 0.00 0.00 89 1014.0
20260507062220 16 173 0.0 0.0 0.00 0.00 0.00 89 1014.0
20260507061150 16 186 0.0 0.0 0.00 0.00 0.00 89 1014.0
20260507060150 16 155 0.0 0.0 0.00 0.00 0.00 88 1014.0
20260507055120 16 143 0.0 0.0 0.00 0.00 0.00 88 1013.0
20260507054050 16 154 0.0 0.0 0.00 0.00 0.00 88 1013.0
20260507053050 16 167 0.0 0.0 0.00 0.00 0.00 87 1013.0
20260507052050 16 158 0.0 0.0 0.00 0.00 0.00 86 1013.0
20260507051020 16 158 0.0 0.0 0.00 0.00 0.00 86 1013.0
20260507045950 16 157 0.0 0.0 0.00 0.00 0.00 86 1013.0
20260507044920 16 158 0.0 0.0 0.00 0.00 0.00 86 1013.0
20260507043850 16 152 0.0 0.0 0.00 0.00 0.00 85 1013.0
20260507042820 16 158 0.0 0.0 0.00 0.00 0.00 85 1013.0
20260507041750 16 158 0.0 0.0 0.00 0.00 0.00 85 1013.0
20260507040750 16 158 0.0 0.0 0.00 0.00 0.00 84 1012.0
20260507035720 16 158 0.0 0.0 0.00 0.00 0.00 83 1012.0
20260507034650 16 158 0.0 0.0 0.00 0.00 0.00 83 1012.0
20260507033649 16 158 0.0 0.0 0.00 0.00 0.00 83 1012.0
20260507032649 16 158 0.0 0.0 0.00 0.00 0.00 82 1012.0
20260507031649 16 217 0.0 0.0 0.00 0.00 0.00 82 1012.0
20260507030619 16 229 0.0 0.0 0.00 0.00 0.00 82 1012.0
20260507025619 16 207 0.0 0.0 0.00 0.00 0.00 82 1012.0
20260507024549 16 241 0.0 0.0 0.00 0.00 0.00 83 1012.0
20260507023549 16 221 0.0 0.0 0.00 0.00 0.00 83 1012.0
20260507022549 16 181 0.0 0.0 0.00 0.00 0.00 83 1012.0
20260507021549 16 222 0.0 0.0 0.00 0.00 0.00 83 1012.0
20260507020449 16 220 0.0 0.0 0.00 0.00 0.00 83 1012.0
20260507015449 16 208 0.0 0.0 0.00 0.00 0.00 83 1012.0
20260507014449 16 235 0.0 0.0 0.00 0.00 0.00 83 1012.0
20260507013419 17 234 0.0 0.0 0.00 0.00 0.00 82 1012.0
20260507012349 17 258 0.0 0.0 0.00 0.00 0.00 81 1012.0
20260507011319 17 259 0.0 0.0 0.00 0.00 0.00 80 1012.0
20260507010319 17 288 0.0 0.0 0.00 0.00 0.00 79 1011.0
20260507005319 17 298 0.0 0.0 0.00 0.00 0.00 80 1011.0
20260507004249 17 274 0.0 0.0 0.00 0.00 0.00 80 1011.0
20260507003249 17 275 0.0 0.0 0.00 0.00 0.00 76 1012.0
20260507002219 17 300 0.0 0.0 0.00 0.00 0.00 75 1012.0
20260507001149 18 264 0.0 0.0 0.00 0.00 0.00 74 1012.0
20260507000149 18 275 0.0 0.0 0.00 0.00 0.00 72 1011.0
20260506235119 18 294 0.0 0.0 0.00 0.00 0.00 71 1012.0
20260506234119 18 281 0.0 0.0 0.00 0.00 0.00 71 1012.0
20260506233119 18 272 0.0 0.0 0.00 0.00 0.00 71 1012.0
20260506232049 18 281 0.0 0.0 0.00 0.00 0.00 71 1012.0
20260506231049 18 252 0.0 0.0 0.00 0.00 0.00 70 1012.0
20260506230049 18 259 0.0 0.0 0.00 0.00 0.00 69 1012.0
20260506225019 18 254 0.0 0.0 0.00 0.00 0.00 68 1012.0
20260506223949 18 251 0.0 0.0 0.00 0.00 0.00 67 1012.0
20260506222919 18 261 0.0 0.0 0.00 0.00 0.00 65 1012.0
20260506221919 18 246 0.0 0.0 0.00 0.00 0.00 63 1012.0
20260506220919 18 257 0.0 0.0 0.00 0.00 0.00 64 1012.0
20260506215849 18 245 0.0 0.0 0.00 0.00 0.00 63 1012.0
20260506214849 18 253 0.0 0.0 0.00 0.00 0.00 62 1011.0
20260506213819 18 289 0.0 0.0 0.00 0.00 0.00 60 1011.0
20260506212749 18 273 0.0 0.0 0.00 0.00 0.00 59 1011.0
20260506211749 19 269 0.0 0.0 0.00 0.00 0.00 57 1011.0
20260506210719 19 280 0.0 0.0 0.00 0.00 0.00 57 1011.0